Tracking 23114 objects as of 18-May-2021
HD Live streaming from Space Station
objects crossing your sky now

DIAMANT B-P4 DEB

Track DIAMANT B-P4 DEB now!
10-day predictions


NORAD ID: 7659
Int'l Code: 1975-010E
Perigee: 789.9 km
Apogee: 1,065.1 km
Inclination: 49.8 °
Period: 103.4 minutes
Semi major axis: 7298 km
RCS: 0.1434 m2 (medium)
Launch date: February 6, 1975
Source: France (FR)
Launch site: FRENCH GUIANA (FRGUI)

Note: This is SATELLITE DEBRIS
aabbcc
Your satellite tracking list
Your tracking list is empty




NASA's NSSDC Master Catalog

Two Line Element Set (TLE):
1 07659U 75010E   21137.79129870 -.00000031  00000-0  76718-4 0  9995
2 07659  49.8176 348.5035 0188524 206.2272 152.8981 13.92356078346563
Source of the keplerian elements: AFSPC